CST,Max TemperatureF,Mean TemperatureF,Min TemperatureF,Max Dew PointF,MeanDew PointF,Min DewpointF,Max Humidity, Mean Humidity, Min Humidity, Max Sea Level PressureIn, Mean Sea Level PressureIn, Min Sea Level PressureIn, Max VisibilityMiles, Mean VisibilityMiles, Min VisibilityMiles, Max Wind SpeedMPH, Mean Wind SpeedMPH, Max Gust SpeedMPH,PrecipitationIn, CloudCover, Events, WindDirDegrees
2013-12-1,46,36,25,34,30,24,95,85,61,30.11,30.05,29.99,10,8,3,10,3,,0.00,1,,4
2013-12-2,42,37,32,36,32,30,100,86,64,29.98,29.85,29.75,10,6,2,14,6,18,0.01,8,Rain,94
2013-12-3,51,44,37,49,43,36,100,94,89,29.76,29.73,29.69,4,3,2,13,9,17,0.01,7,,136
2013-12-4,56,48,40,55,47,35,100,96,80,29.76,29.68,29.54,10,3,0,23,8,29,0.00,8,Fog,146
2013-12-5,39,30,22,35,20,14,90,75,66,30.26,30.06,29.75,10,10,10,22,17,30,0.00,5,,274
2013-12-6,22,18,13,13,10,7,81,69,60,30.54,30.37,30.23,10,10,10,10,8,18,0.00,5,,315
2013-12-7,21,14,8,9,5,3,83,67,47,30.69,30.61,30.54,10,10,10,9,6,,0.00,0,,335
2013-12-8,26,19,12,25,17,9,95,83,67,30.58,30.23,29.96,10,7,1,18,8,22,0.00,7,Snow,77
2013-12-9,26,16,3,24,12,-3,89,77,62,30.26,30.14,29.96,10,10,4,21,15,28,0.00,4,Snow,262
2013-12-10,23,9,-5,12,5,-10,82,70,61,30.32,30.19,30.08,10,10,10,13,4,,0.00,2,,207
2013-12-11,21,10,-2,16,7,-8,90,75,61,30.59,30.42,30.29,10,8,1,,,,0.00,4,Snow,-1
2013-12-12,24,10,-5,14,4,-11,82,73,60,30.58,30.40,30.23,10,10,10,8,6,,0.00,1,,215
2013-12-13,34,22,11,29,19,8,97,81,65,30.22,30.14,30.07,10,8,1,9,5,,0.00,3,Snow,135
2013-12-14,30,26,19,30,27,17,98,91,81,30.08,29.95,29.86,10,6,1,14,8,18,0.00,8,Snow,19
2013-12-15,17,13,9,15,9,5,90,80,71,30.13,30.06,29.98,10,10,2,23,12,29,0.00,7,Snow,266
2013-12-16,20,16,12,18,13,9,96,85,74,30.14,30.08,30.02,10,7,1,9,4,,0.00,8,Snow,85
2013-12-17,30,24,17,26,20,16,95,87,71,30.13,30.06,29.99,10,7,2,16,10,21,0.03,6,Snow,253
2013-12-18,36,21,6,32,16,3,88,75,54,30.20,30.05,29.86,10,10,10,22,11,32,0.02,0,,203
2013-12-19,41,38,34,39,35,32,97,89,83,29.94,29.87,29.78,10,9,5,18,10,25,0.04,3,,183
2013-12-20,42,37,32,42,37,32,100,99,97,29.82,29.76,29.71,5,2,0,14,7,20,0.11,8,Fog-Rain,347
2013-12-21,34,32,31,34,32,30,100,97,94,29.85,29.75,29.52,10,3,0,18,6,20,0.48,8,Fog-Rain,354
2013-12-22,35,32,27,34,30,24,99,93,84,30.14,29.83,29.57,10,8,2,16,9,21,0.03,8,Rain,289
2013-12-23,27,14,2,24,10,-4,89,80,68,30.48,30.36,30.15,10,10,4,20,15,26,0.00,5,Snow,267
2013-12-24,19,10,0,12,3,-5,80,74,67,30.59,30.50,30.37,10,10,7,16,11,21,0.00,2,,222
2013-12-25,29,24,19,27,20,11,95,82,69,30.37,30.23,30.14,10,9,2,18,12,24,0.00,8,Snow,211
2013-12-26,34,24,14,28,22,11,90,78,69,30.33,30.24,30.14,10,10,7,17,13,25,0.00,4,,221
2013-12-27,45,33,21,32,29,20,94,81,61,30.32,30.23,30.13,10,10,10,21,10,26,0.00,1,,208
2013-12-28,51,42,32,36,33,29,91,77,56,30.13,30.04,29.88,10,10,10,18,12,24,0.00,0,,202
2013-12-29,36,26,16,32,26,11,98,87,75,30.17,29.94,29.79,10,8,2,15,11,22,0.00,5,Snow,278
2013-12-30,16,10,5,11,6,1,88,77,67,30.34,30.25,30.18,10,8,1,12,7,18,0.00,6,Snow,276
2013-12-31,17,8,-1,13,7,-5,90,83,76,30.39,30.28,30.18,10,8,0,12,5,,0.00,7,Snow,296